�������l�o���
Date,Time,MP-1(��Sv/h),MP-2(��Sv/h),MP-3(��Sv/h),MP-4(��Sv/h),MP-5(��Sv/h),MP-6(��Sv/h),MP-7(��Sv/h),MP-8(��Sv/h),����,����(m/s),���J
2023/09/07,00:00,0.510,0.770,0.476,0.958,0.659,0.316,0.564,0.526,�k�k��,6.3,��
2023/09/07,00:10,0.511,0.769,0.477,0.957,0.661,0.316,0.561,0.524,�k��,5.9,��
2023/09/07,00:20,0.511,0.769,0.477,0.960,0.661,0.315,0.562,0.525,�k��,6.7,��
2023/09/07,00:30,0.511,0.770,0.478,0.957,0.662,0.314,0.563,0.525,�k��,5.5,��
2023/09/07,00:40,0.511,0.771,0.479,0.957,0.662,0.314,0.563,0.525,�k�k��,6.4,��
2023/09/07,00:50,0.509,0.771,0.478,0.957,0.664,0.315,0.562,0.524,�k�k��,6.1,��
2023/09/07,01:00,0.510,0.770,0.478,0.957,0.661,0.316,0.564,0.524,�k�k��,6.2,��
2023/09/07,01:10,0.512,0.770,0.477,0.958,0.661,0.316,0.563,0.525,�k��,5.7,��
2023/09/07,01:20,0.509,0.769,0.478,0.957,0.664,0.315,0.563,0.525,�k��,7.3,��
2023/09/07,01:30,0.511,0.769,0.477,0.957,0.663,0.315,0.566,0.526,�k�k��,6.4,��
2023/09/07,01:40,0.509,0.771,0.479,0.956,0.661,0.316,0.564,0.525,�k�k��,6.5,��
2023/09/07,01:50,0.510,0.770,0.479,0.957,0.663,0.315,0.563,0.526,�k�k��,5.2,��
2023/09/07,02:00,0.510,0.770,0.478,0.958,0.661,0.316,0.565,0.525,�k�k��,5.3,��
2023/09/07,02:10,0.511,0.770,0.479,0.958,0.663,0.314,0.562,0.527,�k�k��,5.6,��
2023/09/07,02:20,0.510,0.772,0.479,0.957,0.662,0.314,0.563,0.524,�k�k��,3.9,��
2023/09/07,02:30,0.511,0.770,0.479,0.957,0.662,0.316,0.564,0.526,�k�k��,3.8,��
2023/09/07,02:40,0.511,0.771,0.476,0.959,0.664,0.314,0.563,0.524,�k�k��,4.2,��
2023/09/07,02:50,0.510,0.770,0.480,0.959,0.664,0.315,0.564,0.524,�k�k��,4.6,��
2023/09/07,03:00,0.510,0.771,0.479,0.958,0.665,0.315,0.564,0.526,�k,2.9,��
2023/09/07,03:10,0.512,0.772,0.479,0.957,0.664,0.314,0.565,0.524,�k�k��,2.0,��
2023/09/07,03:20,0.511,0.771,0.478,0.959,0.663,0.316,0.565,0.525,�k�k��,1.9,��
2023/09/07,03:30,0.512,0.773,0.478,0.957,0.667,0.316,0.564,0.524,�k�k��,3.7,��
2023/09/07,03:40,0.512,0.769,0.479,0.960,0.665,0.316,0.565,0.525,�k�k��,4.6,��
2023/09/07,03:50,0.512,0.772,0.480,0.958,0.664,0.316,0.565,0.524,�k�k��,6.0,��
2023/09/07,04:00,0.512,0.771,0.478,0.960,0.664,0.316,0.565,0.526,�k��,5.0,��
2023/09/07,04:10,0.512,0.770,0.478,0.960,0.667,0.315,0.565,0.525,�k��,4.3,��
2023/09/07,04:20,0.510,0.771,0.479,0.959,0.666,0.315,0.564,0.525,�k��,4.6,��
2023/09/07,04:30,0.511,0.771,0.478,0.957,0.666,0.316,0.564,0.526,�k��,5.5,��
2023/09/07,04:40,0.510,0.772,0.478,0.959,0.665,0.315,0.565,0.525,�k��,6.3,��
2023/09/07,04:50,0.511,0.773,0.478,0.959,0.667,0.315,0.565,0.525,�k��,6.5,��
2023/09/07,05:00,0.510,0.771,0.479,0.957,0.665,0.316,0.566,0.524,�k��,6.5,��
2023/09/07,05:10,0.510,0.770,0.480,0.958,0.667,0.316,0.564,0.525,�k��,7.3,��
2023/09/07,05:20,0.512,0.770,0.478,0.960,0.667,0.316,0.565,0.525,�k��,7.2,��
2023/09/07,05:30,0.509,0.769,0.478,0.959,0.665,0.315,0.564,0.524,�k��,7.4,��
2023/09/07,05:40,0.511,0.770,0.477,0.959,0.667,0.315,0.565,0.524,�k��,6.9,��
2023/09/07,05:50,0.510,0.770,0.479,0.960,0.666,0.315,0.565,0.525,�k��,6.6,��
2023/09/07,06:00,0.512,0.769,0.478,0.959,0.668,0.315,0.564,0.524,�k��,7.5,��
2023/09/07,06:10,0.510,0.771,0.480,0.959,0.666,0.314,0.565,0.526,�k��,6.6,��
2023/09/07,06:20,0.510,0.772,0.479,0.958,0.668,0.316,0.565,0.523,�k��,6.7,��
2023/09/07,06:30,0.511,0.770,0.479,0.958,0.667,0.314,0.566,0.526,�k��,6.3,��
2023/09/07,06:40,0.511,0.771,0.479,0.959,0.668,0.317,0.565,0.525,�k��,5.3,��
2023/09/07,06:50,0.510,0.773,0.477,0.960,0.667,0.316,0.567,0.526,�k��,6.1,��
2023/09/07,07:00,0.510,0.771,0.480,0.959,0.665,0.315,0.566,0.525,�k��,5.1,��
2023/09/07,07:10,0.512,0.770,0.477,0.961,0.666,0.316,0.566,0.526,�k��,5.9,��
2023/09/07,07:20,0.511,0.771,0.478,0.960,0.667,0.314,0.566,0.526,�k�k��,5.9,��
2023/09/07,07:30,0.512,0.771,0.480,0.960,0.667,0.315,0.567,0.525,�k��,5.5,��
2023/09/07,07:40,0.513,0.772,0.479,0.963,0.667,0.316,0.567,0.524,�k�k��,5.2,��
2023/09/07,07:50,0.512,0.773,0.479,0.959,0.667,0.314,0.567,0.525,�k�k��,3.9,��
2023/09/07,08:00,0.512,0.773,0.480,0.960,0.667,0.314,0.567,0.526,�k�k��,5.6,��
2023/09/07,08:10,0.512,0.771,0.478,0.961,0.669,0.315,0.569,0.525,�k�k��,5.8,��
2023/09/07,08:20,0.511,0.774,0.480,0.961,0.670,0.315,0.566,0.524,�k,6.1,��
2023/09/07,08:30,0.510,0.773,0.478,0.960,0.669,0.316,0.566,0.523,�k�k��,7.1,��
2023/09/07,08:40,0.511,0.772,0.480,0.963,0.669,0.315,0.564,0.525,�k�k��,5.6,��
2023/09/07,08:50,0.512,0.773,0.480,0.962,0.670,0.315,0.565,0.525,�k�k��,4.8,��
2023/09/07,09:00,0.511,0.774,0.483,0.961,0.670,0.316,0.566,0.523,�k,4.7,��
2023/09/07,09:10,0.513,0.773,0.479,0.962,0.670,0.316,0.566,0.523,�k�k��,5.6,��
2023/09/07,09:20,0.512,0.775,0.479,0.964,0.670,0.315,0.565,0.525,�k�k��,5.6,��
2023/09/07,09:30,0.514,0.775,0.479,0.964,0.670,0.315,0.567,0.526,�k�k��,5.6,��
2023/09/07,09:40,0.514,0.777,0.479,0.962,0.671,0.315,0.565,0.524,�k�k��,5.4,��
2023/09/07,09:50,0.514,0.776,0.480,0.962,0.673,0.316,0.566,0.525,�k�k��,5.5,��
2023/09/07,10:00,-,0.776,0.480,0.965,0.673,0.316,0.566,0.525,�k�k��,5.7,��
2023/09/07,10:10,-,0.779,0.483,0.964,0.671,0.316,0.566,0.526,�k�k��,4.9,��
2023/09/07,10:20,-,0.779,0.480,0.962,0.672,0.316,0.566,0.525,�k�k��,5.1,��
2023/09/07,10:30,-,0.778,0.482,0.965,0.674,0.317,0.568,0.524,�k�k��,5.2,��
2023/09/07,10:40,-,0.778,0.482,0.964,0.674,0.317,0.567,0.526,�k�k��,4.5,��
2023/09/07,10:50,-,0.779,0.483,0.965,0.676,0.316,0.566,0.525,�k�k��,4.0,��
2023/09/07,11:00,-,0.776,0.482,0.964,0.677,0.317,0.568,0.527,�k�k��,4.1,��
2023/09/07,11:10,-,0.780,0.482,0.965,0.675,0.317,0.566,0.527,�k�k��,3.9,��
2023/09/07,11:20,-,0.779,0.482,0.965,0.675,0.316,0.567,0.526,�k�k��,4.6,��
2023/09/07,11:30,-,0.779,0.483,0.967,0.676,0.317,0.567,0.526,�k��,4.2,��
2023/09/07,11:40,-,0.782,0.483,0.966,0.677,0.318,0.567,0.526,�k��,3.7,��
2023/09/07,11:50,-,0.780,0.484,0.964,0.677,0.316,0.566,0.525,�k��,4.7,��
2023/09/07,12:00,-,0.781,0.484,0.966,0.677,0.316,0.567,0.527,�k��,4.7,��
2023/09/07,12:10,-,0.781,0.484,0.968,0.677,0.317,0.567,0.526,�k��,4.4,��
2023/09/07,12:20,-,0.782,0.485,0.966,0.678,0.317,0.566,0.527,�k�k��,3.9,��
2023/09/07,12:30,0.518,0.783,0.484,0.966,0.678,0.318,0.568,0.527,�k��,4.2,��
2023/09/07,12:40,0.518,0.783,0.483,0.967,0.679,0.317,0.568,0.526,�k��,4.6,��
2023/09/07,12:50,0.519,0.781,0.483,0.967,0.678,0.317,0.567,0.528,�k��,3.8,��
2023/09/07,13:00,0.516,0.784,0.483,0.966,0.680,0.317,0.568,0.527,�k��,4.0,��
2023/09/07,13:10,0.519,0.782,0.484,0.966,0.681,0.317,0.567,0.528,�k��,3.4,��
2023/09/07,13:20,0.518,0.784,0.483,0.966,0.681,0.317,0.568,0.527,�k��,3.8,��
2023/09/07,13:30,0.520,0.784,0.484,0.967,0.681,0.317,0.566,0.528,�k��,3.4,��
2023/09/07,13:40,0.519,0.782,0.485,0.966,0.680,0.316,0.569,0.528,�k��,3.3,��
2023/09/07,13:50,0.518,0.782,0.483,0.968,0.680,0.317,0.567,0.527,���k��,3.2,��
2023/09/07,14:00,0.520,0.785,0.485,0.967,0.682,0.318,0.569,0.526,���k��,3.1,��
2023/09/07,14:10,0.517,0.781,0.483,0.968,0.681,0.317,0.567,0.528,�k��,3.1,��
2023/09/07,14:20,0.518,0.784,0.484,0.967,0.682,0.318,0.568,0.527,�k��,3.0,��
2023/09/07,14:30,0.520,0.781,0.485,0.968,0.682,0.318,0.567,0.527,�k�k��,3.3,��
2023/09/07,14:40,0.519,0.783,0.485,0.968,0.680,0.318,0.567,0.524,���k��,2.3,��
2023/09/07,14:50,0.519,0.785,0.484,0.969,0.681,0.318,0.567,0.526,���k��,2.9,��
2023/09/07,15:00,0.519,0.785,0.483,0.969,0.682,0.317,0.567,0.528,��,3.6,��
2023/09/07,15:10,0.520,0.784,0.484,0.968,0.683,0.316,0.568,0.527,��,3.4,��
2023/09/07,15:20,0.519,0.788,0.484,0.971,0.680,0.317,0.568,0.528,��,2.6,��
2023/09/07,15:30,0.520,0.784,0.484,0.970,0.683,0.316,0.568,0.527,���쓌,3.1,��
2023/09/07,15:40,0.520,0.786,0.485,0.968,0.683,0.318,0.568,0.527,���쓌,2.8,��
2023/09/07,15:50,0.520,0.786,0.485,0.969,0.684,0.318,0.567,0.527,��,2.6,��
2023/09/07,16:00,0.520,0.786,0.485,0.968,0.682,0.318,0.569,0.526,���쓌,2.6,��
2023/09/07,16:10,0.520,0.784,0.485,0.969,0.683,0.318,0.566,0.527,��,3.1,��
2023/09/07,16:20,0.522,0.786,0.486,0.971,0.683,0.317,0.567,0.525,���쓌,2.8,��
2023/09/07,16:30,0.521,0.786,0.485,0.970,0.683,0.317,0.568,0.526,���쓌,3.6,��
2023/09/07,16:40,0.521,0.785,0.483,0.970,0.683,0.317,0.570,0.526,���쓌,3.4,��
2023/09/07,16:50,0.520,0.787,0.485,0.969,0.685,0.318,0.568,0.525,��,2.9,��
2023/09/07,17:00,0.521,0.785,0.486,0.969,0.683,0.316,0.568,0.526,���k��,3.5,��
2023/09/07,17:10,0.520,0.787,0.485,0.967,0.684,0.317,0.567,0.526,��,3.3,��
2023/09/07,17:20,0.519,0.787,0.485,0.970,0.685,0.318,0.568,0.528,���k��,3.3,��
2023/09/07,17:30,0.519,0.787,0.486,0.969,0.685,0.319,0.569,0.526,��,3.5,��
2023/09/07,17:40,0.519,0.788,0.486,0.970,0.686,0.319,0.567,0.528,���k��,3.9,��
2023/09/07,17:50,0.519,0.790,0.487,0.971,0.687,0.318,0.568,0.527,���k��,4.1,��
2023/09/07,18:00,0.522,0.789,0.486,0.972,0.687,0.320,0.567,0.526,��,2.8,��
2023/09/07,18:10,0.520,0.790,0.487,0.971,0.686,0.319,0.568,0.526,���k��,3.3,��
2023/09/07,18:20,0.518,0.789,0.485,0.969,0.685,0.319,0.567,0.527,���k��,2.6,��
2023/09/07,18:30,0.522,0.788,0.486,0.971,0.686,0.319,0.568,0.528,���k��,3.2,��
2023/09/07,18:40,0.520,0.788,0.487,0.972,0.686,0.318,0.569,0.528,���k��,2.9,��
2023/09/07,18:50,0.520,0.789,0.486,0.970,0.689,0.319,0.570,0.527,���k��,1.7,��
2023/09/07,19:00,0.521,0.789,0.485,0.972,0.686,0.320,0.570,0.528,���k��,2.6,��
2023/09/07,19:10,0.521,0.790,0.487,0.972,0.685,0.319,0.570,0.527,���k��,2.6,��
2023/09/07,19:20,0.519,0.789,0.486,0.971,0.686,0.317,0.571,0.527,���k��,3.1,��
2023/09/07,19:30,0.521,0.789,0.488,0.972,0.688,0.319,0.568,0.528,�k��,4.0,��
2023/09/07,19:40,0.521,0.790,0.485,0.970,0.685,0.318,0.567,0.527,���k��,4.1,��
2023/09/07,19:50,0.519,0.788,0.486,0.971,0.687,0.318,0.570,0.529,�k��,3.7,��
2023/09/07,20:00,0.521,0.788,0.486,0.971,0.688,0.318,0.569,0.527,���k��,4.8,��
2023/09/07,20:10,0.521,0.790,0.485,0.971,0.685,0.318,0.568,0.529,���k��,5.2,��
2023/09/07,20:20,0.520,0.788,0.486,0.970,0.686,0.318,0.569,0.528,�k��,4.4,��
2023/09/07,20:30,0.521,0.790,0.486,0.973,0.685,0.319,0.570,0.527,���k��,5.8,��
2023/09/07,20:40,0.520,0.788,0.486,0.971,0.688,0.318,0.568,0.529,���k��,4.9,��
2023/09/07,20:50,0.520,0.791,0.486,0.972,0.687,0.317,0.567,0.529,���k��,4.4,��
2023/09/07,21:00,0.521,0.789,0.486,0.972,0.686,0.318,0.569,0.526,���k��,6.0,��
2023/09/07,21:10,0.520,0.788,0.487,0.968,0.687,0.318,0.570,0.528,���k��,5.5,��
2023/09/07,21:20,0.519,0.789,0.487,0.971,0.687,0.318,0.569,0.529,�k��,6.1,��
2023/09/07,21:30,0.519,0.790,0.488,0.972,0.687,0.318,0.569,0.529,�k��,6.4,��
2023/09/07,21:40,0.520,0.788,0.486,0.970,0.687,0.320,0.570,0.528,�k��,6.4,��
2023/09/07,21:50,0.521,0.789,0.486,0.971,0.687,0.319,0.570,0.529,���k��,5.8,��
2023/09/07,22:00,0.520,0.789,0.487,0.973,0.687,0.318,0.570,0.529,�k��,5.9,��
2023/09/07,22:10,0.520,0.789,0.487,0.971,0.685,0.318,0.569,0.529,���k��,6.4,��
2023/09/07,22:20,0.520,0.787,0.487,0.972,0.687,0.318,0.571,0.529,���k��,5.8,��
2023/09/07,22:30,0.520,0.790,0.488,0.969,0.686,0.318,0.570,0.528,���k��,6.3,��
2023/09/07,22:40,0.520,0.788,0.485,0.972,0.685,0.319,0.569,0.528,���k��,6.0,��
2023/09/07,22:50,0.521,0.790,0.486,0.971,0.687,0.318,0.571,0.529,���k��,5.6,��
2023/09/07,23:00,0.521,0.789,0.486,0.972,0.687,0.317,0.571,0.528,���k��,5.9,��
2023/09/07,23:10,0.521,0.790,0.486,0.973,0.686,0.319,0.571,0.529,���k��,4.9,��
2023/09/07,23:20,0.520,0.790,0.488,0.971,0.685,0.319,0.571,0.527,���k��,4.6,��
2023/09/07,23:30,0.520,0.790,0.485,0.972,0.687,0.317,0.571,0.529,��,5.1,��
2023/09/07,23:40,0.520,0.790,0.486,0.972,0.688,0.319,0.570,0.529,���k��,5.5,��
2023/09/07,23:50,0.522,0.790,0.486,0.972,0.688,0.316,0.571,0.530,���k��,5.0,��
